Location: Newark
(59.4564°N, 26.6917°E)
Time: 13:14:33
(UTC+00:00)

Vanguard 3 - Pass Details

Date: 24 November 2019
Orbit: 508 x 3263 km, 33.3° (Epoch: 13 December)

Event Time Altitude Azimuth Distance (km) Brightness Sun altitude
Rises 15:03:02 0° 260° (W) 7,203 13.8 -10.7°
Reaches altitude 10° 15:09:42 10° 247° (WSW) 6,195 13.2 -11.5°
Maximum altitude 15:21:52 21° 209° (SSW) 4,944 11.7 -12.9°
Drops below altitude 10° 15:32:13 10° 168° (SSE) 5,158 11.3 -14.2°
Sets 15:37:03 0° 154° (SSE) 5,732 11.4 -14.8°
